| time (UTC) | temp C | wind direction | speed KPH | gust KPH | rain 1hr cm | rain 24hr cm | rain mn cm | humidity % | barometer mb |
| 20260906082327 | 22 | 170 | 0.0 | 0.0 | 0.00 | 0.00 | 0.00 | 99 | 1012.2 |
| 20260906081823 | 22 | 182 | 0.0 | 0.0 | 0.00 | 0.00 | 0.00 | 99 | 1012.3 |
| 20260906081319 | 22 | 182 | 0.0 | 0.0 | 0.00 | 0.00 | 0.00 | 99 | 1012.2 |
| 20260906080814 | 22 | 182 | 0.0 | 0.0 | 0.00 | 0.00 | 0.00 | 99 | 1012.4 |
| 20260906080311 | 23 | 179 | 0.0 | 0.0 | 0.00 | 0.00 | 0.00 | 99 | 1012.5 |
| 20260906075810 | 23 | 179 | 0.0 | 0.0 | 0.00 | 0.00 | 0.00 | 99 | 1012.6 |
| 20260906075310 | 23 | 180 | 0.0 | 0.0 | 0.00 | 0.00 | 0.00 | 99 | 1012.6 |
| 20260906074805 | 23 | 179 | 0.0 | 0.0 | 0.00 | 0.00 | 0.00 | 99 | 1012.7 |
| 20260906074305 | 23 | 180 | 0.0 | 0.0 | 0.00 | 0.00 | 0.00 | 99 | 1012.5 |
| 20260906073804 | 23 | 179 | 0.0 | 0.0 | 0.00 | 0.00 | 0.00 | 99 | 1012.6 |
| 20260906073259 | 23 | 177 | 0.0 | 0.0 | 0.00 | 0.00 | 0.00 | 99 | 1012.5 |
| 20260906072755 | 23 | 180 | 0.0 | 0.0 | 0.00 | 0.00 | 0.00 | 99 | 1012.3 |
| 20260906072250 | 23 | 179 | 0.0 | 0.0 | 0.00 | 0.00 | 0.00 | 99 | 1012.7 |
| 20260906071746 | 23 | 176 | 0.0 | 0.0 | 0.00 | 0.00 | 0.00 | 99 | 1012.6 |
| 20260906071246 | 23 | 179 | 0.0 | 0.0 | 0.00 | 0.00 | 0.00 | 99 | 1012.5 |
| 20260906070743 | 23 | 180 | 0.0 | 0.0 | 0.00 | 0.00 | 0.00 | 99 | 1012.1 |
| 20260906070238 | 23 | 178 | 0.0 | 0.0 | 0.00 | 0.00 | 0.00 | 99 | 1012.5 |
| 20260906065738 | 23 | 176 | 0.0 | 0.0 | 0.00 | 0.00 | 0.00 | 99 | 1012.3 |
| 20260906065233 | 23 | 180 | 0.0 | 0.0 | 0.00 | 0.00 | 0.00 | 99 | 1012.4 |
| 20260906064728 | 23 | 178 | 0.0 | 0.0 | 0.00 | 0.00 | 0.00 | 99 | 1012.7 |
| 20260906064224 | 23 | 180 | 0.0 | 0.0 | 0.00 | 0.00 | 0.00 | 99 | 1012.5 |
| 20260906063719 | 23 | 179 | 0.0 | 0.0 | 0.00 | 0.00 | 0.00 | 99 | 1012.4 |
| 20260906063215 | 23 | 179 | 0.0 | 0.0 | 0.00 | 0.00 | 0.00 | 99 | 1012.5 |
| 20260906062710 | 23 | 186 | 0.0 | 0.0 | 0.00 | 0.00 | 0.00 | 99 | 1012.6 |
| 20260906062209 | 23 | 176 | 0.0 | 0.0 | 0.00 | 0.00 | 0.00 | 99 | 1012.2 |
| 20260906061705 | 23 | 163 | 0.0 | 0.0 | 0.00 | 0.00 | 0.00 | 99 | 1012.6 |
| 20260906061201 | 23 | 178 | 0.0 | 0.0 | 0.00 | 0.00 | 0.00 | 99 | 1012.5 |
| 20260906060657 | 23 | 181 | 0.0 | 0.0 | 0.00 | 0.00 | 0.00 | 99 | 1012.6 |
| 20260906060154 | 23 | 177 | 0.0 | 0.0 | 0.00 | 0.00 | 0.00 | 99 | 1012.6 |
| 20260906055649 | 23 | 180 | 0.0 | 0.0 | 0.00 | 0.00 | 0.00 | 99 | 1012.6 |
| 20260906055144 | 23 | 178 | 0.0 | 0.0 | 0.00 | 0.00 | 0.00 | 99 | 1012.7 |
| 20260906054639 | 23 | 160 | 0.0 | 0.0 | 0.00 | 0.00 | 0.00 | 99 | 1012.8 |
| 20260906054134 | 23 | 177 | 0.0 | 0.0 | 0.00 | 0.00 | 0.00 | 99 | 1012.6 |
| 20260906053632 | 23 | 175 | 1.6 | 1.6 | 0.00 | 0.00 | 0.00 | 99 | 1012.7 |
| 20260906053131 | 23 | 175 | 0.0 | 0.0 | 0.00 | 0.00 | 0.00 | 99 | 1012.7 |
| 20260906052627 | 24 | 174 | 0.0 | 0.0 | 0.00 | 0.00 | 0.00 | 99 | 1012.6 |
| 20260906052123 | 24 | 178 | 0.0 | 0.0 | 0.00 | 0.00 | 0.00 | 99 | 1012.6 |
| 20260906051619 | 24 | 177 | 0.0 | 0.0 | 0.00 | 0.00 | 0.00 | 99 | 1012.7 |
| 20260906051114 | 24 | 177 | 0.0 | 0.0 | 0.00 | 0.00 | 0.00 | 99 | 1012.6 |
| 20260906050610 | 24 | 177 | 0.0 | 0.0 | 0.00 | 0.00 | 0.00 | 99 | 1012.7 |
| 20260906050105 | 24 | 177 | 0.0 | 0.0 | 0.00 | 0.00 | 0.00 | 99 | 1012.7 |
| 20260906045603 | 25 | 173 | 0.0 | 0.0 | 0.00 | 0.00 | 0.00 | 98 | 1012.6 |
| 20260906045058 | 25 | 173 | 0.0 | 0.0 | 0.00 | 0.00 | 0.00 | 98 | 1012.6 |
| 20260906044555 | 25 | 181 | 0.0 | 0.0 | 0.00 | 0.00 | 0.00 | 98 | 1012.8 |
| 20260906044055 | 25 | 182 | 0.0 | 1.6 | 0.00 | 0.00 | 0.00 | 97 | 1012.8 |
| 20260906043550 | 25 | 178 | 0.0 | 0.0 | 0.00 | 0.00 | 0.00 | 98 | 1013.0 |
| 20260906043047 | 25 | 177 | 0.0 | 0.0 | 0.00 | 0.00 | 0.00 | 98 | 1012.8 |
| 20260906042545 | 25 | 165 | 1.6 | 1.6 | 0.00 | 0.00 | 0.00 | 98 | 1012.8 |
| 20260906042040 | 25 | 160 | 1.6 | 1.6 | 0.00 | 0.00 | 0.00 | 97 | 1013.0 |
| 20260906041537 | 25 | 175 | 0.0 | 0.0 | 0.00 | 0.00 | 0.00 | 97 | 1012.8 |
| 20260906041037 | 25 | 178 | 0.0 | 0.0 | 0.00 | 0.00 | 0.00 | 96 | 1013.0 |
| 20260906040532 | 25 | 170 | 0.0 | 1.6 | 0.00 | 0.00 | 0.00 | 96 | 1012.8 |
| 20260906040027 | 25 | 166 | 0.0 | 0.0 | 0.00 | 0.00 | 0.00 | 95 | 1012.7 |
| 20260906035522 | 25 | 182 | 0.0 | 0.0 | 0.00 | 0.00 | 0.00 | 94 | 1013.0 |
| 20260906035019 | 26 | 182 | 0.0 | 0.0 | 0.00 | 0.00 | 0.00 | 94 | 1013.0 |
| 20260906034518 | 26 | 181 | 0.0 | 0.0 | 0.00 | 0.00 | 0.00 | 93 | 1013.0 |
| 20260906034013 | 26 | 181 | 0.0 | 0.0 | 0.00 | 0.00 | 0.00 | 93 | 1012.9 |
| 20260906033508 | 26 | 180 | 0.0 | 0.0 | 0.00 | 0.00 | 0.00 | 92 | 1012.9 |
| 20260906033004 | 26 | 185 | 0.0 | 1.6 | 0.00 | 0.00 | 0.00 | 92 | 1012.8 |
| 20260906032501 | 26 | 191 | 0.0 | 0.0 | 0.00 | 0.00 | 0.00 | 92 | 1012.7 |
| 20260906032000 | 26 | 183 | 0.0 | 0.0 | 0.00 | 0.00 | 0.00 | 91 | 1012.7 |
| 20260906031456 | 26 | 187 | 0.0 | 0.0 | 0.00 | 0.00 | 0.00 | 90 | 1012.5 |
| 20260906030951 | 26 | 185 | 0.0 | 0.0 | 0.00 | 0.00 | 0.00 | 90 | 1012.6 |
| 20260906030445 | 26 | 184 | 0.0 | 0.0 | 0.00 | 0.00 | 0.00 | 92 | 1012.9 |
| 20260906025940 | 26 | 179 | 0.0 | 0.0 | 0.00 | 0.00 | 0.00 | 91 | 1012.9 |
| 20260906025439 | 26 | 183 | 0.0 | 0.0 | 0.00 | 0.00 | 0.00 | 91 | 1012.7 |
| 20260906024938 | 26 | 167 | 0.0 | 0.0 | 0.00 | 0.00 | 0.00 | 90 | 1012.6 |
| 20260906024439 | 26 | 181 | 0.0 | 0.0 | 0.00 | 0.00 | 0.00 | 89 | 1012.7 |
| 20260906023938 | 27 | 190 | 1.6 | 1.6 | 0.00 | 0.00 | 0.00 | 89 | 1012.6 |
| 20260906023435 | 27 | 179 | 1.6 | 1.6 | 0.00 | 0.00 | 0.00 | 89 | 1012.8 |
| 20260906022935 | 27 | 179 | 0.0 | 0.0 | 0.00 | 0.00 | 0.00 | 89 | 1012.7 |
| 20260906022431 | 27 | 162 | 0.0 | 0.0 | 0.00 | 0.00 | 0.00 | 88 | 1012.6 |
| 20260906021926 | 27 | 180 | 0.0 | 0.0 | 0.00 | 0.00 | 0.00 | 86 | 1012.4 |
| 20260906021426 | 27 | 178 | 0.0 | 1.6 | 0.00 | 0.00 | 0.00 | 85 | 1012.4 |
| 20260906020926 | 28 | 185 | 0.0 | 0.0 | 0.00 | 0.00 | 0.00 | 85 | 1012.6 |
| 20260906020420 | 28 | 178 | 1.6 | 3.2 | 0.00 | 0.00 | 0.00 | 84 | 1012.4 |
| 20260906015915 | 28 | 189 | 3.2 | 3.2 | 0.00 | 0.00 | 0.00 | 84 | 1012.3 |
| 20260906015415 | 28 | 165 | 3.2 | 4.8 | 0.00 | 0.00 | 0.00 | 84 | 1012.4 |
| 20260906014915 | 28 | 182 | 0.0 | 0.0 | 0.00 | 0.00 | 0.00 | 83 | 1012.1 |
| 20260906014414 | 28 | 189 | 3.2 | 3.2 | 0.00 | 0.00 | 0.00 | 83 | 1012.1 |
| 20260906013911 | 28 | 195 | 0.0 | 1.6 | 0.00 | 0.00 | 0.00 | 82 | 1012.0 |
| 20260906013406 | 28 | 178 | 0.0 | 0.0 | 0.00 | 0.00 | 0.00 | 82 | 1011.9 |
| 20260906012902 | 28 | 176 | 0.0 | 0.0 | 0.00 | 0.00 | 0.00 | 82 | 1012.0 |
| 20260906012402 | 28 | 182 | 0.0 | 0.0 | 0.00 | 0.00 | 0.00 | 81 | 1011.7 |
| 20260906011901 | 28 | 178 | 0.0 | 0.0 | 0.00 | 0.00 | 0.00 | 80 | 1011.7 |
| 20260906011356 | 28 | 187 | 0.0 | 0.0 | 0.00 | 0.00 | 0.00 | 80 | 1011.7 |
| 20260906010852 | 28 | 181 | 0.0 | 0.0 | 0.00 | 0.00 | 0.00 | 79 | 1011.7 |
| 20260906010348 | 29 | 181 | 0.0 | 0.0 | 0.00 | 0.00 | 0.00 | 78 | 1011.6 |
| 20260906005844 | 29 | 186 | 1.6 | 1.6 | 0.00 | 0.00 | 0.00 | 77 | 1011.7 |
| 20260906005343 | 29 | 198 | 1.6 | 3.2 | 0.00 | 0.00 | 0.00 | 76 | 1011.5 |
| 20260906004842 | 30 | 199 | 4.8 | 8.0 | 0.00 | 0.00 | 0.00 | 75 | 1011.6 |
| 20260906004341 | 30 | 183 | 3.2 | 3.2 | 0.00 | 0.00 | 0.00 | 75 | 1011.6 |
| 20260906003837 | 30 | 200 | 4.8 | 4.8 | 0.00 | 0.00 | 0.00 | 74 | 1011.5 |
| 20260906003332 | 30 | 196 | 6.4 | 9.7 | 0.00 | 0.00 | 0.00 | 73 | 1011.6 |
| 20260906002827 | 30 | 225 | 4.8 | 8.0 | 0.00 | 0.00 | 0.00 | 72 | 1011.7 |
| 20260906002326 | 30 | 179 | 1.6 | 3.2 | 0.00 | 0.00 | 0.00 | 72 | 1011.7 |
| 20260906001822 | 30 | 218 | 8.0 | 8.0 | 0.00 | 0.00 | 0.00 | 71 | 1011.6 |
| 20260906001318 | 31 | 215 | 4.8 | 4.8 | 0.00 | 0.00 | 0.00 | 70 | 1011.4 |
| 20260906000813 | 31 | 221 | 6.4 | 8.0 | 0.00 | 0.00 | 0.00 | 70 | 1011.6 |
| 20260906000307 | 31 | 198 | 4.8 | 4.8 | 0.00 | 0.00 | 0.00 | 69 | 1011.6 |
| 20260905235802 | 31 | 210 | 3.2 | 4.8 | 0.00 | 0.00 | 0.00 | 69 | 1011.3 |
| 20260905235306 | 31 | 189 | 3.2 | 3.2 | 0.00 | 0.00 | 0.00 | 68 | 1011.5 |
| 20260905234758 | 32 | 194 | 4.8 | 4.8 | 0.00 | 0.00 | 0.00 | 67 | 1011.4 |
| 20260905234252 | 32 | 166 | 4.8 | 4.8 | 0.00 | 0.00 | 0.00 | 66 | 1011.3 |
| 20260905233748 | 32 | 190 | 1.6 | 3.2 | 0.00 | 0.00 | 0.00 | 66 | 1011.3 |
| 20260905233247 | 32 | 187 | 6.4 | 8.0 | 0.00 | 0.00 | 0.00 | 65 | 1011.3 |
| 20260905232747 | 32 | 153 | 8.0 | 11.3 | 0.00 | 0.00 | 0.00 | 65 | 1011.3 |
| 20260905232243 | 32 | 201 | 8.0 | 9.7 | 0.00 | 0.00 | 0.00 | 64 | 1011.2 |
| 20260905231739 | 33 | 198 | 8.0 | 11.3 | 0.00 | 0.00 | 0.00 | 64 | 1011.2 |
| 20260905231234 | 33 | 177 | 8.0 | 11.3 | 0.00 | 0.00 | 0.00 | 63 | 1010.9 |
| 20260905230730 | 33 | 203 | 6.4 | 8.0 | 0.00 | 0.00 | 0.00 | 62 | 1010.9 |
| 20260905230227 | 33 | 174 | 8.0 | 11.3 | 0.00 | 0.00 | 0.00 | 61 | 1011.0 |
| 20260905225727 | 34 | 209 | 14.5 | 16.1 | 0.00 | 0.00 | 0.00 | 60 | 1010.8 |
| 20260905225223 | 34 | 190 | 6.4 | 9.7 | 0.00 | 0.00 | 0.00 | 60 | 1011.1 |
| 20260905224722 | 35 | 223 | 4.8 | 8.0 | 0.00 | 0.00 | 0.00 | 58 | 1011.0 |
| 20260905224217 | 35 | 209 | 1.6 | 1.6 | 0.00 | 0.00 | 0.00 | 55 | 1010.8 |
| 20260905223713 | 36 | 236 | 4.8 | 8.0 | 0.00 | 0.00 | 0.00 | 54 | 1011.0 |
| 20260905223210 | 37 | 197 | 1.6 | 3.2 | 0.00 | 0.00 | 0.00 | 45 | 1010.7 |
| 20260905222705 | 37 | 186 | 1.6 | 1.6 | 0.00 | 0.00 | 0.00 | 43 | 1010.9 |
| 20260905222205 | 37 | 189 | 0.0 | 0.0 | 0.00 | 0.00 | 0.00 | 43 | 1010.7 |
| 20260905221700 | 37 | 184 | 0.0 | 0.0 | 0.00 | 0.00 | 0.00 | 43 | 1010.8 |
| 20260905221157 | 37 | 172 | 0.0 | 0.0 | 0.00 | 0.00 | 0.00 | 44 | 1010.7 |
| 20260905220652 | 37 | 206 | 4.8 | 4.8 | 0.00 | 0.00 | 0.00 | 42 | 1010.6 |
| 20260905220149 | 37 | 191 | 0.0 | 0.0 | 0.00 | 0.00 | 0.00 | 42 | 1010.7 |
| 20260905215648 | 37 | 181 | 0.0 | 1.6 | 0.00 | 0.00 | 0.00 | 44 | 1010.9 |
| 20260905215144 | 37 | 198 | 1.6 | 1.6 | 0.00 | 0.00 | 0.00 | 42 | 1011.0 |
| 20260905214640 | 37 | 200 | 1.6 | 1.6 | 0.00 | 0.00 | 0.00 | 42 | 1010.9 |
| 20260905214141 | 38 | 193 | 0.0 | 0.0 | 0.00 | 0.00 | 0.00 | 43 | 1010.9 |
| 20260905213636 | 37 | 201 | 0.0 | 1.6 | 0.00 | 0.00 | 0.00 | 45 | 1011.0 |
| 20260905213131 | 38 | 43 | 1.6 | 3.2 | 0.00 | 0.00 | 0.00 | 41 | 1011.3 |
| 20260905212626 | 38 | 209 | 0.0 | 0.0 | 0.00 | 0.00 | 0.00 | 41 | 1011.2 |
| 20260905212127 | 38 | 212 | 0.0 | 0.0 | 0.00 | 0.00 | 0.00 | 41 | 1011.2 |
| 20260905211627 | 38 | 197 | 1.6 | 3.2 | 0.00 | 0.00 | 0.00 | 42 | 1011.2 |
| 20260905211122 | 38 | 230 | 0.0 | 0.0 | 0.00 | 0.00 | 0.00 | 42 | 1011.2 |
| 20260905210619 | 38 | 198 | 6.4 | 8.0 | 0.00 | 0.00 | 0.00 | 41 | 1011.1 |
| 20260905210113 | 39 | 167 | 1.6 | 3.2 | 0.00 | 0.00 | 0.00 | 40 | 1011.3 |
| 20260905205612 | 37 | 295 | 3.2 | 3.2 | 0.00 | 0.00 | 0.00 | 41 | 1011.3 |
| 20260905205112 | 37 | 207 | 4.8 | 8.0 | 0.00 | 0.00 | 0.00 | 41 | 1011.3 |
| 20260905204612 | 37 | 239 | 3.2 | 3.2 | 0.00 | 0.00 | 0.00 | 43 | 1011.5 |
| 20260905204108 | 37 | 177 | 1.6 | 1.6 | 0.00 | 0.00 | 0.00 | 42 | 1011.5 |
| 20260905203608 | 38 | 196 | 0.0 | 0.0 | 0.00 | 0.00 | 0.00 | 41 | 1011.6 |
| 20260905203103 | 38 | 66 | 1.6 | 3.2 | 0.00 | 0.00 | 0.00 | 41 | 1011.7 |
| 20260905202558 | 38 | 203 | 1.6 | 3.2 | 0.00 | 0.00 | 0.00 | 41 | 1011.6 |
| 20260905202053 | 38 | 216 | 0.0 | 1.6 | 0.00 | 0.00 | 0.00 | 40 | 1011.7 |
| 20260905201549 | 37 | 127 | 4.8 | 8.0 | 0.00 | 0.00 | 0.00 | 43 | 1011.5 |
| 20260905201048 | 37 | 337 | 3.2 | 3.2 | 0.00 | 0.00 | 0.00 | 45 | 1011.7 |
| 20260905200544 | 37 | 224 | 4.8 | 4.8 | 0.00 | 0.00 | 0.00 | 43 | 1011.7 |
| 20260905200044 | 38 | 0 | 6.4 | 8.0 | 0.00 | 0.00 | 0.00 | 43 | 1011.9 |
| 20260905195538 | 38 | 337 | 6.4 | 8.0 | 0.00 | 0.00 | 0.00 | 42 | 1011.8 |
| 20260905195033 | 39 | 204 | 1.6 | 3.2 | 0.00 | 0.00 | 0.00 | 42 | 1011.8 |
| 20260905194533 | 40 | 190 | 1.6 | 3.2 | 0.00 | 0.00 | 0.00 | 39 | 1011.8 |
| 20260905194032 | 38 | 144 | 0.0 | 1.6 | 0.00 | 0.00 | 0.00 | 43 | 1011.8 |
| 20260905193527 | 38 | 201 | 0.0 | 1.6 | 0.00 | 0.00 | 0.00 | 42 | 1011.9 |
| 20260905193023 | 38 | 287 | 4.8 | 4.8 | 0.00 | 0.00 | 0.00 | 41 | 1012.1 |
| 20260905192518 | 37 | 166 | 0.0 | 1.6 | 0.00 | 0.00 | 0.00 | 45 | 1011.9 |
| 20260905192014 | 36 | 179 | 4.8 | 8.0 | 0.00 | 0.00 | 0.00 | 47 | 1012.0 |
| 20260905191513 | 37 | 334 | 9.7 | 12.9 | 0.00 | 0.00 | 0.00 | 46 | 1012.3 |
| 20260905191012 | 37 | 4 | 6.4 | 11.3 | 0.00 | 0.00 | 0.00 | 47 | 1012.4 |
| 20260905190510 | 37 | 195 | 3.2 | 3.2 | 0.00 | 0.00 | 0.00 | 45 | 1012.5 |
| 20260905190010 | 35 | 148 | 1.6 | 1.6 | 0.00 | 0.00 | 0.00 | 52 | 1012.6 |
| 20260905185504 | 36 | 209 | 3.2 | 3.2 | 0.00 | 0.00 | 0.00 | 49 | 1012.7 |
| 20260905185003 | 36 | 194 | 1.6 | 1.6 | 0.00 | 0.00 | 0.00 | 48 | 1012.5 |
| 20260905184458 | 37 | 225 | 4.8 | 4.8 | 0.00 | 0.00 | 0.00 | 47 | 1012.7 |
| 20260905183957 | 36 | 167 | 1.6 | 1.6 | 0.00 | 0.00 | 0.00 | 51 | 1012.9 |
| 20260905183456 | 37 | 319 | 8.0 | 9.7 | 0.00 | 0.00 | 0.00 | 49 | 1012.9 |
| 20260905182951 | 38 | 182 | 0.0 | 1.6 | 0.00 | 0.00 | 0.00 | 47 | 1013.0 |
| 20260905182451 | 38 | 200 | 6.4 | 8.0 | 0.00 | 0.00 | 0.00 | 49 | 1013.0 |
| 20260905181946 | 37 | 143 | 1.6 | 4.8 | 0.00 | 0.00 | 0.00 | 48 | 1013.1 |
| 20260905181447 | 36 | 175 | 0.0 | 0.0 | 0.00 | 0.00 | 0.00 | 50 | 1013.2 |
| 20260905180946 | 36 | 313 | 4.8 | 8.0 | 0.00 | 0.00 | 0.00 | 50 | 1013.1 |
| 20260905180441 | 36 | 5 | 6.4 | 8.0 | 0.00 | 0.00 | 0.00 | 48 | 1013.3 |
| 20260905175936 | 37 | 148 | 4.8 | 4.8 | 0.00 | 0.00 | 0.00 | 47 | 1013.5 |
| 20260905175435 | 38 | 167 | 1.6 | 3.2 | 0.00 | 0.00 | 0.00 | 44 | 1013.3 |
| 20260905174931 | 36 | 80 | 1.6 | 3.2 | 0.00 | 0.00 | 0.00 | 47 | 1013.5 |
| 20260905174426 | 37 | 158 | 1.6 | 3.2 | 0.00 | 0.00 | 0.00 | 48 | 1013.7 |
| 20260905173922 | 37 | 297 | 4.8 | 4.8 | 0.00 | 0.00 | 0.00 | 47 | 1013.8 |
| 20260905173418 | 35 | 186 | 4.8 | 8.0 | 0.00 | 0.00 | 0.00 | 49 | 1014.0 |
| 20260905172919 | 35 | 119 | 4.8 | 4.8 | 0.00 | 0.00 | 0.00 | 51 | 1014.0 |
| 20260905172416 | 35 | 55 | 3.2 | 3.2 | 0.00 | 0.00 | 0.00 | 53 | 1013.9 |
| 20260905171912 | 35 | 199 | 1.6 | 3.2 | 0.00 | 0.00 | 0.00 | 54 | 1014.0 |
| 20260905171409 | 35 | 14 | 6.4 | 8.0 | 0.00 | 0.00 | 0.00 | 56 | 1014.2 |
| 20260905170905 | 35 | 207 | 3.2 | 3.2 | 0.00 | 0.00 | 0.00 | 55 | 1013.9 |
| 20260905170401 | 36 | 316 | 4.8 | 4.8 | 0.00 | 0.00 | 0.00 | 53 | 1013.9 |
| 20260905165900 | 35 | 188 | 0.0 | 1.6 | 0.00 | 0.00 | 0.00 | 54 | 1014.2 |
| 20260905165356 | 35 | 153 | 0.0 | 0.0 | 0.00 | 0.00 | 0.00 | 55 | 1014.2 |
| 20260905164856 | 35 | 151 | 3.2 | 3.2 | 0.00 | 0.00 | 0.00 | 58 | 1014.4 |
| 20260905164351 | 35 | 184 | 1.6 | 3.2 | 0.00 | 0.00 | 0.00 | 57 | 1014.3 |
| 20260905163846 | 35 | 180 | 1.6 | 3.2 | 0.00 | 0.00 | 0.00 | 57 | 1014.2 |
| 20260905163342 | 35 | 177 | 0.0 | 0.0 | 0.00 | 0.00 | 0.00 | 55 | 1014.2 |
| 20260905162838 | 35 | 45 | 6.4 | 9.7 | 0.00 | 0.00 | 0.00 | 56 | 1014.3 |
| 20260905162338 | 35 | 177 | 1.6 | 1.6 | 0.00 | 0.00 | 0.00 | 57 | 1014.3 |
| 20260905161833 | 34 | 146 | 0.0 | 1.6 | 0.00 | 0.00 | 0.00 | 58 | 1014.5 |
| 20260905161332 | 34 | 76 | 3.2 | 4.8 | 0.00 | 0.00 | 0.00 | 59 | 1014.4 |
| 20260905160830 | 34 | 20 | 6.4 | 9.7 | 0.00 | 0.00 | 0.00 | 59 | 1014.5 |
| 20260905160325 | 35 | 218 | 3.2 | 3.2 | 0.00 | 0.00 | 0.00 | 60 | 1014.5 |
| 20260905155819 | 35 | 154 | 3.2 | 3.2 | 0.00 | 0.00 | 0.00 | 60 | 1014.7 |
| 20260905155318 | 34 | 208 | 1.6 | 1.6 | 0.00 | 0.00 | 0.00 | 63 | 1014.6 |
| 20260905154813 | 34 | 196 | 0.0 | 1.6 | 0.00 | 0.00 | 0.00 | 63 | 1014.6 |
| 20260905154308 | 34 | 194 | 1.6 | 1.6 | 0.00 | 0.00 | 0.00 | 62 | 1014.7 |
| 20260905153804 | 33 | 172 | 0.0 | 0.0 | 0.00 | 0.00 | 0.00 | 65 | 1014.7 |
| 20260905153301 | 33 | 346 | 4.8 | 4.8 | 0.00 | 0.00 | 0.00 | 67 | 1014.7 |
| 20260905152800 | 33 | 216 | 3.2 | 3.2 | 0.00 | 0.00 | 0.00 | 67 | 1014.7 |
| 20260905152259 | 32 | 179 | 1.6 | 3.2 | 0.00 | 0.00 | 0.00 | 70 | 1014.9 |
| 20260905151754 | 32 | 297 | 4.8 | 4.8 | 0.00 | 0.00 | 0.00 | 69 | 1014.9 |
| 20260905151250 | 32 | 182 | 0.0 | 0.0 | 0.00 | 0.00 | 0.00 | 70 | 1015.0 |
| 20260905150750 | 32 | 169 | 0.0 | 0.0 | 0.00 | 0.00 | 0.00 | 71 | 1014.9 |
| 20260905150249 | 31 | 168 | 0.0 | 0.0 | 0.00 | 0.00 | 0.00 | 72 | 1014.7 |
| 20260905145747 | 31 | 174 | 1.6 | 3.2 | 0.00 | 0.00 | 0.00 | 75 | 1014.8 |
| 20260905145242 | 31 | 166 | 1.6 | 1.6 | 0.00 | 0.00 | 0.00 | 75 | 1014.8 |
| 20260905144740 | 30 | 168 | 1.6 | 1.6 | 0.00 | 0.00 | 0.00 | 80 | 1014.9 |
| 20260905144236 | 30 | 83 | 3.2 | 3.2 | 0.00 | 0.00 | 0.00 | 80 | 1014.7 |
| 20260905143735 | 30 | 180 | 1.6 | 1.6 | 0.00 | 0.00 | 0.00 | 81 | 1015.0 |
| 20260905143234 | 29 | 174 | 0.0 | 1.6 | 0.00 | 0.00 | 0.00 | 82 | 1014.8 |
| 20260905142733 | 28 | 147 | 1.6 | 3.2 | 0.00 | 0.00 | 0.00 | 84 | 1015.0 |
| 20260905142228 | 28 | 79 | 1.6 | 1.6 | 0.00 | 0.00 | 0.00 | 85 | 1015.1 |
| 20260905141724 | 28 | 166 | 0.0 | 1.6 | 0.00 | 0.00 | 0.00 | 87 | 1014.9 |
| 20260905141220 | 28 | 187 | 1.6 | 1.6 | 0.00 | 0.00 | 0.00 | 88 | 1014.8 |
| 20260905140715 | 27 | 177 | 1.6 | 1.6 | 0.00 | 0.00 | 0.00 | 89 | 1014.8 |
| 20260905140209 | 27 | 176 | 0.0 | 0.0 | 0.00 | 0.00 | 0.00 | 90 | 1015.0 |
| 20260905135703 | 27 | 159 | 0.0 | 0.0 | 0.00 | 0.00 | 0.00 | 92 | 1014.8 |
| 20260905135200 | 26 | 151 | 0.0 | 1.6 | 0.00 | 0.00 | 0.00 | 94 | 1014.8 |
| 20260905134659 | 26 | 182 | 1.6 | 1.6 | 0.00 | 0.00 | 0.00 | 96 | 1014.9 |
| 20260905134158 | 25 | 165 | 1.6 | 1.6 | 0.00 | 0.00 | 0.00 | 99 | 1015.0 |
| 20260905133653 | 25 | 184 | 0.0 | 0.0 | 0.00 | 0.00 | 0.00 | 99 | 1015.1 |
| 20260905133153 | 25 | 168 | 0.0 | 0.0 | 0.00 | 0.00 | 0.00 | 99 | 1014.8 |
| 20260905132647 | 24 | 181 | 0.0 | 0.0 | 0.00 | 0.00 | 0.00 | 99 | 1014.9 |
| 20260905132143 | 23 | 190 | 0.0 | 0.0 | 0.00 | 0.00 | 0.00 | 99 | 1014.8 |
| 20260905131638 | 23 | 184 | 0.0 | 0.0 | 0.00 | 0.00 | 0.00 | 99 | 1015.3 |
| 20260905131138 | 23 | 190 | 0.0 | 0.0 | 0.00 | 0.00 | 0.00 | 99 | 1014.9 |
| 20260905130633 | 23 | 186 | 0.0 | 0.0 | 0.00 | 0.00 | 0.00 | 99 | 1014.8 |
| 20260905130133 | 22 | 190 | 0.0 | 0.0 | 0.00 | 0.00 | 0.00 | 99 | 1014.8 |
| 20260905125632 | 22 | 185 | 0.0 | 0.0 | 0.00 | 0.00 | 0.00 | 99 | 1015.0 |
| 20260905125128 | 22 | 183 | 0.0 | 0.0 | 0.00 | 0.00 | 0.00 | 99 | 1014.9 |
| 20260905124624 | 22 | 182 | 0.0 | 0.0 | 0.00 | 0.00 | 0.00 | 99 | 1015.1 |
| 20260905124120 | 22 | 185 | 0.0 | 0.0 | 0.00 | 0.00 | 0.00 | 99 | 1015.2 |
| 20260905123615 | 21 | 185 | 0.0 | 0.0 | 0.00 | 0.00 | 0.00 | 99 | 1015.0 |
| 20260905123113 | 21 | 185 | 0.0 | 0.0 | 0.00 | 0.00 | 0.00 | 99 | 1015.1 |
| 20260905122607 | 21 | 182 | 0.0 | 0.0 | 0.00 | 0.00 | 0.00 | 99 | 1015.0 |
| 20260905122107 | 21 | 183 | 0.0 | 0.0 | 0.00 | 0.00 | 0.00 | 99 | 1014.8 |
| 20260905121601 | 21 | 183 | 0.0 | 0.0 | 0.00 | 0.00 | 0.00 | 99 | 1014.8 |
| 20260905121056 | 21 | 181 | 0.0 | 0.0 | 0.00 | 0.00 | 0.00 | 99 | 1014.8 |
| 20260905120555 | 21 | 183 | 0.0 | 0.0 | 0.00 | 0.00 | 0.00 | 99 | 1014.6 |
| 20260905120051 | 21 | 184 | 0.0 | 0.0 | 0.00 | 0.00 | 0.00 | 99 | 1014.9 |
| 20260905115549 | 21 | 185 | 0.0 | 0.0 | 0.00 | 0.00 | 0.00 | 99 | 1014.7 |
| 20260905115044 | 21 | 182 | 0.0 | 0.0 | 0.00 | 0.00 | 0.00 | 99 | 1014.7 |
| 20260905114544 | 21 | 184 | 0.0 | 0.0 | 0.00 | 0.00 | 0.00 | 99 | 1014.5 |
| 20260905114043 | 21 | 179 | 0.0 | 0.0 | 0.00 | 0.00 | 0.00 | 99 | 1014.5 |
| 20260905113538 | 21 | 186 | 0.0 | 0.0 | 0.00 | 0.00 | 0.00 | 99 | 1014.5 |
| 20260905113033 | 21 | 188 | 0.0 | 0.0 | 0.00 | 0.00 | 0.00 | 99 | 1014.3 |
| 20260905112528 | 21 | 185 | 0.0 | 0.0 | 0.00 | 0.00 | 0.00 | 99 | 1014.5 |
| 20260905112024 | 21 | 184 | 0.0 | 0.0 | 0.00 | 0.00 | 0.00 | 99 | 1014.4 |
| 20260905111519 | 21 | 187 | 0.0 | 0.0 | 0.00 | 0.00 | 0.00 | 99 | 1014.4 |
| 20260905111018 | 21 | 185 | 0.0 | 0.0 | 0.00 | 0.00 | 0.00 | 99 | 1014.5 |
| 20260905110517 | 21 | 184 | 0.0 | 0.0 | 0.00 | 0.00 | 0.00 | 99 | 1014.3 |
| 20260905110013 | 21 | 184 | 0.0 | 0.0 | 0.00 | 0.00 | 0.00 | 99 | 1014.2 |
| 20260905105507 | 21 | 185 | 0.0 | 0.0 | 0.00 | 0.00 | 0.00 | 99 | 1014.1 |
| 20260905105001 | 21 | 184 | 0.0 | 0.0 | 0.00 | 0.00 | 0.00 | 99 | 1014.4 |
| 20260905104457 | 21 | 184 | 0.0 | 0.0 | 0.00 | 0.00 | 0.00 | 99 | 1014.2 |
| 20260905103956 | 21 | 176 | 0.0 | 0.0 | 0.00 | 0.00 | 0.00 | 99 | 1014.2 |
| 20260905103452 | 21 | 187 | 0.0 | 0.0 | 0.00 | 0.00 | 0.00 | 99 | 1014.2 |
| 20260905102948 | 21 | 186 | 0.0 | 0.0 | 0.00 | 0.00 | 0.00 | 99 | 1014.1 |
| 20260905102444 | 21 | 184 | 0.0 | 0.0 | 0.00 | 0.00 | 0.00 | 99 | 1014.2 |
| 20260905101939 | 21 | 183 | 0.0 | 0.0 | 0.00 | 0.00 | 0.00 | 99 | 1014.1 |
| 20260905101438 | 21 | 184 | 0.0 | 0.0 | 0.00 | 0.00 | 0.00 | 99 | 1014.1 |
| 20260905100937 | 21 | 183 | 0.0 | 0.0 | 0.00 | 0.00 | 0.00 | 99 | 1014.0 |
| 20260905100433 | 21 | 184 | 0.0 | 0.0 | 0.00 | 0.00 | 0.00 | 99 | 1014.3 |
| 20260905095932 | 21 | 184 | 0.0 | 0.0 | 0.00 | 0.00 | 0.00 | 99 | 1014.2 |
| 20260905095432 | 21 | 183 | 0.0 | 0.0 | 0.00 | 0.00 | 0.00 | 99 | 1014.3 |
| 20260905094933 | 21 | 183 | 0.0 | 0.0 | 0.00 | 0.00 | 0.00 | 99 | 1014.1 |
| 20260905094429 | 21 | 184 | 0.0 | 0.0 | 0.00 | 0.00 | 0.00 | 99 | 1013.9 |
| 20260905093927 | 21 | 179 | 0.0 | 0.0 | 0.00 | 0.00 | 0.00 | 99 | 1014.1 |
| 20260905093423 | 21 | 182 | 0.0 | 0.0 | 0.00 | 0.00 | 0.00 | 99 | 1014.3 |
| 20260905092918 | 21 | 184 | 0.0 | 0.0 | 0.00 | 0.00 | 0.00 | 99 | 1013.9 |
| 20260905092413 | 21 | 184 | 0.0 | 0.0 | 0.00 | 0.00 | 0.00 | 99 | 1013.9 |
| 20260905091909 | 21 | 182 | 0.0 | 0.0 | 0.00 | 0.00 | 0.00 | 99 | 1014.0 |
| 20260905091408 | 21 | 183 | 0.0 | 0.0 | 0.00 | 0.00 | 0.00 | 99 | 1013.9 |
| 20260905090908 | 21 | 185 | 0.0 | 0.0 | 0.00 | 0.00 | 0.00 | 99 | 1013.8 |
| 20260905090403 | 21 | 171 | 0.0 | 0.0 | 0.00 | 0.00 | 0.00 | 99 | 1013.8 |
| 20260905085902 | 21 | 192 | 0.0 | 0.0 | 0.00 | 0.00 | 0.00 | 99 | 1014.0 |
| 20260905085402 | 22 | 186 | 0.0 | 0.0 | 0.00 | 0.00 | 0.00 | 99 | 1013.7 |
| 20260905084859 | 22 | 183 | 0.0 | 0.0 | 0.00 | 0.00 | 0.00 | 99 | 1013.8 |
| 20260905084357 | 22 | 181 | 0.0 | 0.0 | 0.00 | 0.00 | 0.00 | 99 | 1013.7 |
| 20260905083852 | 22 | 185 | 0.0 | 0.0 | 0.00 | 0.00 | 0.00 | 99 | 1013.7 |
| 20260905083348 | 22 | 187 | 0.0 | 0.0 | 0.00 | 0.00 | 0.00 | 99 | 1014.0 |
| 20260905082843 | 22 | 171 | 0.0 | 0.0 | 0.00 | 0.00 | 0.00 | 99 | 1014.0 |